Weather reports worldwide

Advertisment
Dörnick, Germany (10150): temperature & dewpoint: 16.01.2019 04:00:00 - 22.01.2019 04:00:00 (CET)Dörnick, Germany (10150): temperature 5cm & temperature -5cm: 16.01.2019 04:00:00 - 22.01.2019 04:00:00 (CET)Dörnick, Germany (10150): temperature -20cm & temperature -100cm: 16.01.2019 04:00:00 - 22.01.2019 04:00:00 (CET)Dörnick, Germany (10150): wind speed & gusts: 16.01.2019 04:00:00 - 22.01.2019 04:00:00 (CET)Dörnick, Germany (10150): wind direction: 16.01.2019 04:00:00 - 22.01.2019 04:00:00 (CET)Dörnick, Germany (10150): reduced air pressure: 16.01.2019 04:00:00 - 22.01.2019 04:00:00 (CET)Dörnick, Germany (10150): visibility: 16.01.2019 04:00:00 - 22.01.2019 04:00:00 (CET)Dörnick, Germany (10150): sunshine duration: 16.01.2019 04:00:00 - 22.01.2019 04:00:00 (CET)Dörnick, Germany (10150): precipitation: 16.01.2019 04:00:00 - 22.01.2019 04:00:00 (CET)
Date & Time tt [°C] td [°C] tt 5cm [°C] tt -5cm [°C] tt -20cm [°C] tt -100cm [°C] ff [km/h] ff [kn] fx [km/h] fx [kn] dd ppp [hPa] vv [km] sd [min] rr [mm]
22.01.2019 04:00:00 -0,6 -0,6 -0,6 0,0 1,1 6,0 13 7 20 11 SSW 1013,6 0,3 0 0,0
22.01.2019 03:00:00 -0,8 -0,8 -0,8 0,0 1,1 6,0 9 5 20 11 SW 1014,4 0,2 0 0,0
22.01.2019 02:00:00 -1,1 -1,2 -1,0 0,0 1,1 6,0 14 7 19 11 SW 1015,1 0,3 0 0,0
22.01.2019 01:00:00 -0,7 -0,7 -0,7 0,0 1,1 6,0 8 5 17 9 SW 1015,5 0,3 0 0,0
22.01.2019 00:00:00 -0,4 -0,4 -0,3 0,0 1,1 6,0 13 7 19 11 WSW 1015,9 0,4 0 0,0
21.01.2019 23:00:00 0,0 0,0 -0,1 0,0 1,1 6,0 14 8 24 13 WSW 1016,2 0,5 0 0,0
21.01.2019 22:00:00 0,4 0,4 0,0 0,0 1,1 6,0 12 7 21 12 WSW 1016,4 0,8 0 0,0
21.01.2019 21:00:00 0,4 0,4 0,0 0,0 1,1 6,0 14 8 23 12 SW 1016,4 0,6 0 0,0
21.01.2019 20:00:00 0,3 0,2 0,0 0,0 1,1 6,0 15 8 24 13 WSW 1016,6 0,3 0 0,0
21.01.2019 19:00:00 -0,1 -0,8 -0,4 0,0 1,1 6,0 14 8 27 15 WSW 1016,8 2,4 0 0,0
21.01.2019 18:00:00 -0,1 -1,1 -0,6 0,0 1,1 6,0 18 10 31 17 WSW 1017,2 3,7 0 0,0
21.01.2019 17:00:00 -0,2 -1,5 -0,6 0,0 1,1 6,1 18 10 26 14 WSW 1017,3 4,2 0 0,0
21.01.2019 16:00:00 0,0 -1,1 -0,4 -0,1 1,1 6,1 18 10 28 15 SW 1017,4 3,4 0 0,0
21.01.2019 15:00:00 -0,6 -1,9 -0,5 -0,1 1,1 6,1 16 9 27 14 SW 1017,8 4,1 1 0,0
21.01.2019 14:00:00 -1,2 -2,7 -1,0 -0,1 1,1 6,1 16 8 28 15 SW 1018,5 4,3 0 0,0
21.01.2019 13:00:00 -1,9 -4,0 -1,5 -0,2 1,1 6,1 10 5 20 11 SW 1018,9 5 38 0,0
21.01.2019 12:00:00 -3,1 -4,9 -3,3 -0,4 1,2 6,1 11 6 26 14 SW 1019,5 6 0 0,0
21.01.2019 11:00:00 -3,6 -5,5 -3,3 -0,6 1,2 6,1 15 8 27 14 SSW 1020,1 6 0 0,2
21.01.2019 10:00:00 -3,8 -5,8 -3,6 -0,9 1,2 6,1 15 8 23 13 SW 1020,6 6 0 0,0
21.01.2019 09:00:00 -4,5 -5,9 -4,3 -1,0 1,2 6,1 14 8 22 12 SSW 1020,6 4,6 0 0,0
21.01.2019 08:00:00 -4,5 -5,6 -4,3 -1,1 1,3 6,1 14 7 26 14 SSW 1020,6 3,6 0 0,0
21.01.2019 07:00:00 -5,2 -6,0 -5,3 -1,2 1,3 6,1 6 3 16 9 SSW 1021,1 3,1 0 0,0
21.01.2019 06:00:00 -5,3 -6,2 -5,4 -1,1 1,3 6,1 10 5 20 11 SSW 1021,4 3,1 0 0,0
21.01.2019 05:00:00 -5,6 -6,3 -5,1 -1,0 1,4 6,2 8 5 16 9 SSW 1021,8 2,3 0 0,0
21.01.2019 04:00:00 -5,7 -6,4 -5,4 -1,1 1,4 6,2 10 6 15 8 SSW 1022,3 2,6 0 0,0
21.01.2019 03:00:00 -6,4 -7,4 -7,3 -1,1 1,4 6,2 8 4 13 7 S 1022,9 4,7 0 0,0
21.01.2019 02:00:00 -6,2 -7,2 -7,2 -0,8 1,5 6,2 5 3 13 7 SSW 1023,0 6 0 0,0
21.01.2019 01:00:00 -6,0 -7,1 -6,7 -0,6 1,5 6,2 7 4 12 6 S 1023,1 6 0 0,0
21.01.2019 00:00:00 -5,7 -6,7 -5,4 -0,4 1,5 6,2 6 4 9 5 S 1023,3 6 0 0,0
20.01.2019 23:00:00 -5,9 -6,4 -6,7 -0,2 1,5 6,2 5 3 9 5 S 1023,1 5 0 0,0
20.01.2019 22:00:00 -5,5 -6,3 -5,1 -0,1 1,6 6,2 5 3 8 4 W 1022,8 3,5 0 0,0
20.01.2019 21:00:00 -5,0 -5,4 -5,0 0,1 1,6 6,2 5 3 11 6 SSW 1022,4 3,4 0 0,0
20.01.2019 20:00:00 -4,5 -4,9 -4,0 0,1 1,6 6,2 5 3 10 5 S 1022,2 0,1 0 0,0
20.01.2019 19:00:00 -3,9 -4,1 -3,8 0,1 1,6 6,2 6 3 11 6 S 1021,8 0,6 0 0,0
20.01.2019 18:00:00 -3,5 -3,6 -3,1 0,1 1,6 6,2 5 3 10 5 SSE 1021,5 0,2 0 0,0
20.01.2019 17:00:00 -2,8 -3,0 -2,3 0,1 1,6 6,3 6 3 9 5 SE 1021,1 0,3 0 0,0
20.01.2019 16:00:00 -2,8 -3,1 -2,3 0,1 1,6 6,3 6 3 10 5 SE 1020,9 0,4 0 0,0
20.01.2019 15:00:00 -2,6 -2,9 -2,0 0,1 1,6 6,3 6 3 10 6 SE 1020,6 0,3 0 0,0
20.01.2019 14:00:00 -2,6 -2,9 -1,9 0,1 1,6 6,3 6 4 10 5 SE 1020,5 0,4 0 0,0
20.01.2019 13:00:00 -2,8 -3,0 -1,8 0,0 1,6 6,3 6 4 9 5 SSE 1020,6 0,2 0 0,0
20.01.2019 12:00:00 -3,1 -3,5 -2,1 0,0 1,6 6,3 5 3 10 5 SE 1020,5 0,4 0 0,0
20.01.2019 11:00:00 -3,1 -3,4 -2,3 0,0 1,7 6,3 3 2 9 5 ESE 1020,4 1,9 0 0,0
20.01.2019 10:00:00 -3,2 -3,7 -2,8 -0,1 1,7 6,3 5 3 8 4 SE 1019,8 1,1 0 0,0
20.01.2019 09:00:00 -3,3 -3,9 -3,8 -0,2 1,7 6,3 5 3 10 5 ESE 1019,3 2,7 0 0,0
20.01.2019 08:00:00 -2,8 -3,5 -3,9 -0,1 1,7 6,3 4 2 7 4 ESE 1018,8 2,6 0 0,0
20.01.2019 07:00:00 -2,6 -3,3 -4,0 -0,1 1,8 6,3 4 2 8 4 ESE 1018,3 2,4 0 0,0
20.01.2019 06:00:00 -2,3 -3,1 -3,2 0,0 1,8 6,4 5 3 8 5 ESE 1018,4 2,7 0 0,0
20.01.2019 05:00:00 -2,4 -3,0 -3,3 0,0 1,9 6,4 5 3 7 4 ESE 1018,4 2,4 0 0,0
20.01.2019 04:00:00 -3,5 -3,7 -4,1 0,0 1,9 6,4 4 2 6 4 SE 1018,4 3,0 0 0,0
20.01.2019 03:00:00 -4,6 -5,3 -5,5 0,1 2,0 6,4 0 0 4 2 N 1018,5 3,6 0 0,0
20.01.2019 02:00:00 -3,5 -4,4 -5,7 0,2 2,0 6,4 3 1 13 7 WSW 1018,6 2,8 0 0,0
20.01.2019 01:00:00 -1,6 -2,9 -3,1 0,3 2,1 6,4 10 5 13 7 SSE 1018,6 4,9 0 0,0
20.01.2019 00:00:00 -1,4 -2,5 -3,1 0,4 2,1 6,4 8 4 11 6 SE 1018,6 4,7 0 0,0
19.01.2019 23:00:00 -3,6 -4,1 -5,4 0,5 2,2 6,4 3 2 4 2 SE 1018,6 3,9 0 0,0
19.01.2019 22:00:00 -3,5 -4,1 -5,6 0,6 2,2 6,4 1 1 5 3 SSE 1018,7 3,8 0 0,0
19.01.2019 21:00:00 -1,9 -3,0 -5,1 0,7 2,3 6,4 4 2 6 4 ESE 1018,6 6 0 0,0
19.01.2019 20:00:00 -0,9 -2,7 -4,3 0,7 2,3 6,4 5 3 7 4 ESE 1018,7 8 0 0,0
19.01.2019 19:00:00 -1,1 -2,8 -4,0 0,8 2,4 6,4 4 2 7 4 SE 1018,7 8 0 0,0
19.01.2019 18:00:00 -0,2 -2,1 -3,0 0,9 2,4 6,5 5 3 6 3 ESE 1018,7 7 0 0,0
19.01.2019 17:00:00 0,1 -2,3 -2,8 1,0 2,4 6,5 4 2 6 4 SE 1018,6 9 0 0,0
19.01.2019 16:00:00 1,9 -1,9 0,7 1,8 2,4 6,5 4 2 8 5 S 1018,8 11 53 0,0
19.01.2019 15:00:00 2,1 -2,3 2,7 2,0 2,3 6,5 6 3 8 5 SSW 1019,0 9 60 0,0
19.01.2019 14:00:00 1,6 -2,2 3,2 1,8 2,1 6,5 6 3 10 5 SW 1019,4 10 60 0,0
19.01.2019 13:00:00 0,0 -3,1 3,0 1,1 2,1 6,5 8 4 12 6 SSW 1019,8 10 60 0,0
19.01.2019 12:00:00 -0,6 -2,1 1,0 0,7 2,1 6,5 6 3 10 5 SSW 1020,2 6 60 0,0
19.01.2019 11:00:00 -1,3 -1,9 -0,2 0,7 2,1 6,5 5 3 12 7 SSW 1020,3 4,8 26 0,0
19.01.2019 10:00:00 -1,2 -1,2 -0,9 0,7 2,1 6,5 8 4 16 9 SSW 1020,2 0,3 0 0,0
19.01.2019 09:00:00 -1,3 -1,3 -1,0 0,7 2,1 6,5 7 4 14 7 SSW 1019,8 0,2 0 0,0
19.01.2019 08:00:00 -0,8 -0,8 -0,8 0,7 2,1 6,5 7 4 14 8 SSW 1019,3 0,2 0 0,0
19.01.2019 07:00:00 -0,5 -0,5 -0,5 0,7 2,2 6,5 8 5 13 7 SSW 1019,3 0,2 0 0,0
19.01.2019 06:00:00 -0,5 -0,5 -0,5 0,6 2,2 6,5 9 5 11 6 SW 1019,2 0,2 0 0,0
19.01.2019 05:00:00 -0,5 -0,5 -0,4 0,6 2,2 6,5 5 3 11 6 WSW 1019,4 0,2 0 0,0
19.01.2019 04:00:00 -0,5 -0,5 -0,3 0,6 2,2 6,6 7 4 12 7 SSW 1019,4 0,5 0 0,0
19.01.2019 03:00:00 -0,2 -0,2 -0,3 0,6 2,2 6,6 8 4 13 7 SW 1019,5 0,3 0 0,0
19.01.2019 02:00:00 0,0 0,0 -0,1 0,6 2,2 6,6 10 5 16 9 WSW 1019,5 0,6 0 0,0
19.01.2019 01:00:00 0,3 0,3 0,0 0,6 2,3 6,6 8 5 14 8 WSW 1019,5 1,1 0 0,0
19.01.2019 00:00:00 0,5 0,5 0,2 0,6 2,3 6,6 9 5 21 11 SW 1019,3 1,3 0 0,0
18.01.2019 23:00:00 0,7 0,7 0,2 0,6 2,3 6,6 13 7 21 12 WSW 1019,1 0,6 0 0,0
18.01.2019 22:00:00 0,2 0,2 -0,1 0,6 2,3 6,6 15 8 23 12 WSW 1019,0 0,4 0 0,0
18.01.2019 21:00:00 0,1 0,1 -0,5 0,6 2,3 6,6 11 6 18 10 SW 1018,5 4,9 0 0,0
18.01.2019 20:00:00 -0,6 -0,8 -1,3 0,6 2,4 6,6 10 6 13 7 SW 1018,1 0,3 0 0,0
18.01.2019 19:00:00 -0,1 -0,6 -3,1 0,6 2,4 6,6 8 4 17 9 WSW 1018,0 16 0 0,0
18.01.2019 18:00:00 0,6 -0,4 -1,3 0,6 2,4 6,6 11 6 16 9 WSW 1017,8 31 0 0,0
18.01.2019 17:00:00 0,7 -0,7 -1,2 0,6 2,5 6,6 12 7 18 10 WSW 1017,6 45 0 0,0
18.01.2019 16:00:00 1,6 -0,5 0,2 0,6 2,5 6,6 12 7 16 9 WSW 1017,2 27 53 0,0
18.01.2019 15:00:00 2,2 0,0 2,1 0,5 2,5 6,6 10 5 18 10 WSW 1016,7 15 60 0,0
18.01.2019 14:00:00 1,9 -0,1 1,8 0,5 2,6 6,6 13 7 21 11 WSW 1016,4 13 60 0,0
18.01.2019 13:00:00 1,0 -1,0 0,3 0,5 2,6 6,6 13 7 24 13 W 1016,3 30 57 0,0
18.01.2019 12:00:00 0,2 -2,1 0,7 0,5 2,7 6,6 16 9 23 12 WSW 1016,0 13 60 0,0
18.01.2019 11:00:00 -0,7 -3,8 -0,6 0,5 2,7 6,6 16 8 26 14 WSW 1015,7 15 60 0,0
18.01.2019 10:00:00 -2,1 -5,6 -2,7 0,5 2,8 6,6 15 8 26 14 SW 1015,2 25 30 0,0
18.01.2019 09:00:00 -3,2 -5,7 -4,6 0,6 2,9 6,6 5 3 16 9 SW 1014,6 59 0 0,0
18.01.2019 08:00:00 -3,9 -5,8 -4,3 0,6 3,0 6,6 7 4 10 6 SW 1014,1 47 0 0,0
18.01.2019 07:00:00 -4,3 -6,0 -6,2 0,7 3,0 6,6 7 4 10 6 W 1013,8 47 0 0,0
18.01.2019 06:00:00 -4,3 -5,7 -7,0 0,8 3,1 6,6 8 4 11 6 W 1013,1 46 0 0,0
18.01.2019 05:00:00 -3,2 -5,1 -5,6 0,9 3,2 6,6 8 5 18 10 W 1012,3 56 0 0,0
18.01.2019 04:00:00 -2,2 -4,6 -4,0 1,0 3,3 6,6 11 6 23 13 WNW 1011,6 50 0 0,0
18.01.2019 03:00:00 -1,9 -4,1 -3,1 1,0 3,4 6,6 13 7 21 12 W 1010,6 56 0 0,0
18.01.2019 02:00:00 -0,3 -4,0 -1,5 1,1 3,5 6,6 16 9 34 18 NNW 1009,1 52 0 0,0
18.01.2019 01:00:00 -0,1 -4,7 -1,8 1,2 3,7 6,6 23 13 40 22 NNW 1007,8 62 0 0,0
18.01.2019 00:00:00 -0,1 -4,0 -1,6 1,3 3,8 6,6 23 12 38 21 NNW 1006,6 62 0 0,0
17.01.2019 23:00:00 0,0 -2,1 -0,3 1,4 4,0 6,6 21 11 31 17 NNW 1004,9 58 0 0,0
17.01.2019 22:00:00 -0,3 -0,8 -0,5 1,5 4,2 6,6 19 10 39 21 NNW 1003,3 3,3 0 0,3
17.01.2019 21:00:00 -0,1 -0,5 -0,1 1,6 4,4 6,6 14 7 29 16 N 1001,8 3,0 0 0,8
17.01.2019 20:00:00 0,3 -0,1 -0,1 2,1 4,6 6,6 7 4 24 13 NNE 999,6 2,4 0 0,7
17.01.2019 19:00:00 1,6 0,3 1,2 3,2 4,7 6,6 14 7 23 12 NE 998,1 19 0 0,0
17.01.2019 18:00:00 2,7 1,5 1,8 3,3 4,8 6,6 8 5 27 14 W 997,1 64 0 0,4
17.01.2019 17:00:00 3,2 1,5 2,2 3,7 4,9 6,6 16 9 39 21 W 996,1 66 0 0,2
17.01.2019 16:00:00 4,1 2,6 3,4 4,5 4,9 6,6 18 10 34 18 W 995,1 63 0 0,1
17.01.2019 15:00:00 4,3 2,4 3,6 4,7 4,8 6,6 28 15 52 28 W 994,5 24 0 0,0
17.01.2019 14:00:00 4,8 2,1 4,2 4,7 4,8 6,6 30 16 45 24 WSW 994,1 40 0 0,0
17.01.2019 13:00:00 5,1 1,8 4,7 4,9 4,8 6,6 34 18 58 31 WSW 994,3 28 2 0,1
17.01.2019 12:00:00 4,9 2,3 3,9 4,6 4,7 6,6 35 19 54 29 SW 994,2 14 1 0,0
17.01.2019 11:00:00 4,8 2,2 4,3 4,4 4,7 6,6 33 18 54 29 SW 994,7 25 2 0,0
17.01.2019 10:00:00 4,6 2,3 3,7 4,0 4,7 6,6 27 14 53 29 SW 994,6 14 0 0,1
17.01.2019 09:00:00 4,6 2,4 3,9 3,8 4,8 6,6 28 15 42 23 SW 994,6 26 0 0,0
17.01.2019 08:00:00 4,7 2,6 3,9 3,8 4,9 6,6 29 16 43 23 SW 994,3 30 0 0,0
17.01.2019 07:00:00 4,5 2,7 3,7 3,6 5,0 6,6 28 15 45 25 SW 994,2 33 0 0,0
17.01.2019 06:00:00 4,2 2,6 3,0 3,7 5,1 6,5 26 14 38 20 SW 994,2 29 0 0,0
17.01.2019 05:00:00 4,5 3,0 3,2 4,2 5,2 6,5 26 14 42 23 WSW 994,1 31 0 0,0
17.01.2019 04:00:00 4,4 3,0 3,5 4,3 5,2 6,5 23 12 37 20 WSW 994,2 38 0 0,1
17.01.2019 03:00:00 4,6 3,5 4,0 4,6 5,3 6,5 21 11 39 21 WSW 994,4 11 0 0,7
17.01.2019 02:00:00 4,6 3,7 4,0 4,7 5,3 6,5 27 15 58 31 SW 994,2 4,2 0 0,4
17.01.2019 01:00:00 4,7 3,6 4,1 4,8 5,4 6,5 29 16 45 24 SW 994,4 8 0 0,1
17.01.2019 00:00:00 4,6 3,6 4,0 4,8 5,5 6,5 27 15 49 26 SW 995,2 7 0 0,3
16.01.2019 23:00:00 4,6 3,7 4,1 5,0 5,5 6,5 30 16 48 26 SW 995,8 3,5 0 0,0
16.01.2019 22:00:00 4,8 3,9 4,3 5,1 5,6 6,5 30 16 47 26 SW 996,5 4,4 0 0,1
16.01.2019 21:00:00 5,2 4,0 4,6 5,3 5,6 6,5 28 15 50 27 SW 997,4 7 0 0,0
16.01.2019 20:00:00 5,4 4,5 4,9 5,5 5,7 6,5 35 19 57 31 SW 997,9 4,8 0 0,0
16.01.2019 19:00:00 5,8 4,8 5,0 5,7 5,7 6,5 29 16 50 27 SW 998,6 8 0 0,0
16.01.2019 18:00:00 5,9 5,1 5,4 5,9 5,7 6,5 27 15 54 29 SW 999,4 4,8 0 0,3
16.01.2019 17:00:00 6,3 5,5 5,8 6,1 5,7 6,5 29 16 51 28 SW 1000,0 4,6 0 0,0
16.01.2019 16:00:00 6,7 5,7 6,0 6,3 5,7 6,5 31 17 46 25 SW 1000,2 5 0 0,3
16.01.2019 15:00:00 7,0 6,2 6,5 6,5 5,6 6,5 31 17 48 26 SW 1000,4 2,3 0 0,1
16.01.2019 14:00:00 7,1 6,3 6,7 6,6 5,5 6,5 26 14 44 24 SW 1001,1 4,4 0 0,4
16.01.2019 13:00:00 7,1 6,2 6,8 6,6 5,4 6,5 23 13 45 25 SW 1001,9 6 0 0,0
16.01.2019 12:00:00 7,8 5,1 7,6 6,2 5,4 6,5 29 16 43 23 WSW 1002,5 24 0 0,0
16.01.2019 11:00:00 7,4 5,7 6,5 6,0 5,3 6,5 24 13 37 20 SW 1003,2 9 0 0,0
16.01.2019 10:00:00 7,4 5,7 6,4 6,0 5,3 6,5 27 14 39 21 WSW 1003,6 9 0 0,0
16.01.2019 09:00:00 7,5 5,3 6,9 5,8 5,3 6,5 27 14 42 23 WSW 1003,8 16 0 0,0
16.01.2019 08:00:00 7,3 5,3 6,6 5,7 5,3 6,5 23 13 35 19 WSW 1004,1 13 0 0,0
16.01.2019 07:00:00 7,1 5,1 6,4 5,7 5,2 6,5 22 12 45 24 WSW 1004,3 16 0 0,0
16.01.2019 06:00:00 7,2 5,1 6,5 5,7 5,2 6,5 23 12 41 22 WSW 1004,9 18 0 0,0
16.01.2019 05:00:00 7,2 4,9 6,5 5,7 5,2 6,6 27 15 44 24 WSW 1005,2 22 0 0,0
16.01.2019 04:00:00 7,2 5,0 6,5 5,8 5,2 6,6 29 16 45 24 WSW 1005,7 25 0 0,0

tt = temperature
td = dewpoint
tt 5cm = temperature 5cm
tt -5cm = temperature -5cm
tt -20cm = temperature -20cm
tt -100cm = temperature -100cm
ff = wind speed
fx = gusts
dd = wind direction
ppp = reduced air pressure
vv = visibility
sd = sunshine duration
rr = precipitation

Next stations